This is the latest recevied weather packets stored in our database for station/object KI4FRU. If no packets are shown the sender has not sent any weather packets the latest 10 day(s).
| Time | Temp. | Humidity | Pressure | Rain* | Wind** | Luminosity | Snow |
|---|---|---|---|---|---|---|---|
| 1777556325 | 16.11° C | 94% | 1050.8 hPa | 0 mm | - | 65 W/m² | - |
| 1777556021 | 16.11° C | 98% | 1050.8 hPa | 0 mm | - | 54 W/m² | - |
| 1777555716 | 16.11° C | 98% | 1050.8 hPa | 0 mm | - | 54 W/m² | - |
| 1777555413 | 15.56° C | 99% | 1050.7 hPa | 0 mm | - | 53 W/m² | - |
| 1777555109 | 15.56° C | 99% | 1051 hPa | 0 mm | - | 40 W/m² | - |
| 1777554807 | 15.56° C | 99% | 1050.9 hPa | 0 mm | - | 25 W/m² | - |
| 1777554504 | 15° C | 99% | 1051.1 hPa | 0 mm | - | 56 W/m² | - |
| 1777554201 | 15° C | 99% | 1051.2 hPa | 0 mm | - | 16 W/m² | - |
| 1777553898 | 15° C | 99% | 1051.2 hPa | 0 mm | - | 16 W/m² | - |
| 1777553594 | 15° C | 99% | 1051.3 hPa | 0 mm | - | 8 W/m² | - |
| 1777553290 | 15° C | 99% | 1051.3 hPa | 0 mm | - | 8 W/m² | - |
| 1777552986 | 15° C | 99% | 1050.9 hPa | 0 mm | - | 13 W/m² | - |
| 1777552680 | 15° C | 99% | 1051 hPa | 0 mm | - | 15 W/m² | - |
| 1777552377 | 15° C | 99% | 1051.3 hPa | 0 mm | - | 16 W/m² | - |
| 1777552073 | 15° C | 99% | 1051.1 hPa | 0 mm | - | 9 W/m² | - |
| 1777551771 | 14.44° C | 99% | 1051.1 hPa | 0 mm | - | 12 W/m² | - |
| 1777551468 | 14.44° C | 99% | 1050.9 hPa | 0 mm | - | 20 W/m² | - |
| 1777551165 | 14.44° C | 99% | 1050.7 hPa | 0 mm | - | 19 W/m² | - |
| 1777550862 | 14.44° C | 99% | 1051 hPa | 0 mm | - | 12 W/m² | - |
| 1777550558 | 14.44° C | 99% | 1050.9 hPa | 0 mm | - | 12 W/m² | - |
| 1777550254 | 14.44° C | 99% | 1050.6 hPa | 0 mm | - | 10 W/m² | - |
| 1777549951 | 14.44° C | 99% | 1050.6 hPa | 0 mm | - | 7 W/m² | - |
| 1777549647 | 14.44° C | 99% | 1050.7 hPa | 0 mm | - | 8 W/m² | - |
| 1777549343 | 14.44° C | 99% | 1050.8 hPa | 0 mm | - | 8 W/m² | - |
| 1777549041 | 14.44° C | 99% | 1050.2 hPa | 0 mm | - | 6 W/m² | - |
* Rain latest hour (hover to see other rain measurements)
** Current wind speed in m/s (hover to see current wind gust speed)